Location: Sauerland
(51.1981°N, 7.8053°E)
Time: 15:42:58
(UTC+01:00)

ISS - Pass Details

Date: 23 February 2026
Orbit: 416 x 427 km, 51.6° (Epoch: 5 March)

Event Time Altitude Azimuth Distance (km) Brightness Sun altitude
Exits shadow 04:16:03 14° 82° (E) 1,271 -0.6 -30.1°
Drops below altitude 10° 04:16:37 10° 80° (E) 1,497 -0.1 -30.0°
Sets 04:18:44 0° 76° (ENE) 2,361 1.2 -29.7°
